Regional Weather Roundup
Issued by NWS Cleveland, OH

Home | Current Version | Previous Version | Graphics & Text | Print | Product List | Glossary On
Versions: 1 2 3 4 5 6 7 8 9 10 11 12 13 14 15 16 17 18 19 20 21 22 23 24 25 26 27 28 29 30 31 32 33 34 35 36 37 38 39 40 41 42 43 44 45 46 47 48 49 50
000
ASUS41 KCLE 221810
RWRCLE
OHIO REGIONAL WEATHER ROUNDUP
NATIONAL WEATHER SERVICE CLEVELAND, OH
200 PM EDT FRI MAY 22 2015

NOTE: "FAIR" INDICATES FEW OR NO CLOUDS BELOW 12,000 FEET WITH NO
SIGNIFICANT WEATHER AND/OR OBSTRUCTIONS TO VISIBILITY.

OHZ001>008-015>018-024>027-034-035-043-044-221900-
   NORTHWEST OHIO

CITY           SKY/WX    TMP DP  RH WIND       PRES   REMARKS
DEFIANCE       SUNNY     68  33  27 N7        30.21R
FINDLAY        SUNNY     69  31  24 NW12G18   30.19S
TOLEDO EXPRESS SUNNY     66  28  24 NW10G18   30.20R
TOLEDO EXEC    SUNNY     67  29  24 NW9       30.21R
LIMA           SUNNY     66  41  40 VRB6      30.20R
$$

OHZ009>014-019>023-028>033-038-089-221900-
   NORTHEAST OHIO

CITY           SKY/WX    TMP DP  RH WIND       PRES   REMARKS
CLE-HOPKINS    SUNNY     61  32  33 N13       30.22R
CLE-LAKEFRONT  SUNNY     58  39  49 W12       30.20R
CUY CO. ARPT   SUNNY     59  34  38 NW12      30.21R
LORAIN-ELYRIA  SUNNY     62  27  26 NW14      30.21R
ASHTABULA      SUNNY     58  29  33 NW14G20   30.19R
AKRON-CANTON   MOSUNNY   66  31  27 N14G25    30.18R
WOOSTER        SUNNY     66  28  24 NW20      30.20R
MANSFIELD      SUNNY     65  31  28 W8G20     30.20R
YOUNGSTOWN     MOSUNNY   61  28  28 W15G30    30.15R
$$

OHZ042-051>053-060>062-070>072-077>081-221900-
  SOUTHWEST OHIO

CITY           SKY/WX    TMP DP  RH WIND       PRES   REMARKS
CINC-COVINGTON MOSUNNY   71  47  42 SW12G18   30.22S
CINC-LUNKEN    MOSUNNY   71  49  45 SW12G21   30.21F
HAMILTON       MOSUNNY   74  49  41 W9        30.20F
DAYTON         MOSUNNY   71  48  43 W13G22    30.19F
WRIGHT-PAT AFB MOSUNNY   71  47  42 W12       30.18F
DAYTON GENERAL PTSUNNY   70  47  43 SW10G17   30.19F
WILMINGTON     MOSUNNY   71  41  33 SW16G24   30.20S
$$

OHZ036-037-039>041-045>050-054>059-063>069-073>076-082>088-221900-
  CENTRAL AND SOUTHEAST OHIO

CITY           SKY/WX    TMP DP  RH WIND       PRES   REMARKS
COLUMBUS       PTSUNNY   67  47  48 NW7       30.17F
OSU AIRPORT    MOSUNNY   70  47  43 VRB6G21   30.18S
BOLTON FIELD   PTSUNNY   68  48  49 W8G17     30.19S
RICKENBACK AFB MOSUNNY   70  46  43 W13       30.17S
NEWARK         PTSUNNY   67  50  54 NW7G16    30.18S
MARION         SUNNY     67  40  37 NW10      30.20S
LANCASTER      PTSUNNY   71  45  39 W10       30.18F
ZANESVILLE     MOSUNNY   67  47  48 W12G20    30.19R
NEW PHILLY     CLOUDY    66  45  46 W9        30.18R
$$



USA.gov is the U.S. government's official web portal to all federal, state and local government web resources and services.